Zurück zum Katalog

SL-8 R/B

AktivLEO
NORAD 10521·ROCKET BODY·🇷🇺 Russia

Gestartet Dec 16, 1977 von Plesetsk Cosmodrome

Loading…

Nächste Überflüge (nächste 24 Stunden)

TLE

AktuellSource: Space-Track

Epoche: Sep 14, 2026, 00:42 UTC

1 10521U 77119B   26257.02985149  .00000177  00000-0  61376-4 0  9996
2 10521  74.0262 133.9233 0019490  41.6428 318.6208 14.42478023558274

Verfolge SL-8 R/B in Echtzeit mit AllMySat

Download on the App Store